{"data":{"norad_id":61528,"epoch":"2026-09-21T10:44:33.133344Z","epoch_age_seconds":110167,"freshness":"FRESH","line1":"1 61528U 24183V   26264.44760571 -.00006138  00000+0 -18608-3 0  9999","line2":"2 61528  53.1606 312.4704 0001206  83.0861 277.0278 15.31721373109636","mean_motion":15.31721373,"eccentricity":0.0001206,"inclination_deg":53.1606,"raan_deg":312.4704,"arg_perigee_deg":83.0861,"mean_anomaly_deg":277.0278,"bstar":-0.00018608,"rev_number":10963,"period_min":94.011876140348,"perigee_km":469.85031728358,"apogee_km":471.50225104772,"semimajor_km":6848.8132841656,"source":"CELESTRAK","updated_at":"2026-09-22T09:00:49.359409Z"}}